Weather History for KLXT - January, 2013

Change the Weather History Date:

Friday, January 4, 2013

  Actual Average (KMKC) Record (KMKC)
Temperature  
Mean Temperature 30 °F -  
Max Temperature 41 °F 38 °F 66 °F (1997)
Min Temperature 19 °F 21 °F 1 °F (1999)
Degree Days  
Heating Degree Days 35    
Moisture  
Dew Point 22 °F    
Average Humidity 69    
Maximum Humidity 89    
Minimum Humidity 51    
Precipitation  
Precipitation 0.00 in - - ()
Sea Level Pressure  
Sea Level Pressure 30.35 in    
Wind  
Wind Speed 7 mph (SW)    
Max Wind Speed 15 mph    
Max Gust Speed -    
Visibility 10 miles    
Events      
Averages and records for this station are not official NWS values.
T = Trace of Precipitation, MM = Missing Value Source: NWS Daily Summary

Daily Weather History Graph

Daily Weather History Graph

Search for Another Location

Airport or City:

Trip Planner

Search our weather history database for the weather conditions in past years. The results will help you decide how hot, cold, wet, or windy it might be!

Date:

Astronomy

Jan. 04, 2013 Rise Set
Actual Time 7:36 AM CST 5:08 PM CST
Civil Twilight 7:06 AM CST 5:38 PM CST
Nautical Twilight 6:33 AM CST 6:11 PM CST
Astronomical Twilight 6:01 AM CST 6:44 PM CST
Moon No Moon Rise 11:23 AM CST (1/4)
Length of Visible Light 10h 31m
Length of Day
9h 32m
Waning Gibbous, 55% of the Moon is Illuminated
Jan 4
Waning Gibbous
Jan 4
Last Quarter
Jan 11
New
Jan 18
First Quarter
Jan 26
Full

Hourly Weather History & Observations

Time (CST) Temp. Windchill Dew Point Humidity Pressure Visibility Wind Dir Wind Speed Gust Speed Precip Events Conditions
12:53 AM 24.1 °F 19.7 °F 18.0 °F 77% 30.41 in 10.0 mi SSW 3.5 mph - N/A   Clear
1:53 AM 21.9 °F 17.2 °F 18.0 °F 85% 30.42 in 10.0 mi SW 3.5 mph - N/A   Clear
2:53 AM 21.0 °F 14.6 °F 18.0 °F 88% 30.43 in 8.0 mi SW 4.6 mph - N/A   Clear
3:53 AM 19.9 °F 11.1 °F 17.1 °F 89% 30.42 in 6.0 mi SW 6.9 mph - N/A   Clear
4:53 AM 21.0 °F 12.4 °F 18.0 °F 88% 30.40 in 7.0 mi SW 6.9 mph - N/A   Clear
5:53 AM 21.0 °F 12.4 °F 18.0 °F 88% 30.40 in 8.0 mi SW 6.9 mph - N/A   Clear
7:53 AM 21.9 °F 12.5 °F 18.0 °F 85% 30.40 in 10.0 mi SW 8.1 mph - N/A   Clear
8:53 AM 26.1 °F 17.6 °F 19.9 °F 78% 30.40 in 10.0 mi SW 8.1 mph - N/A   Clear
9:53 AM 28.9 °F 18.2 °F 21.9 °F 75% 30.41 in 10.0 mi SW 13.8 mph - N/A   Clear
11:53 AM 36.0 °F 27.1 °F 21.9 °F 57% 30.38 in 10.0 mi WSW 13.8 mph - N/A   Clear
12:53 PM 37.9 °F 29.2 °F 23.0 °F 55% 30.34 in 10.0 mi SW 15.0 mph - N/A   Clear
1:53 PM 39.9 °F 31.8 °F 24.1 °F 53% 30.32 in 10.0 mi SSW 15.0 mph - N/A   Clear
2:53 PM 41.0 °F 34.3 °F 24.1 °F 51% 30.31 in 10.0 mi SW 11.5 mph - N/A   Clear
3:53 PM 41.0 °F 34.3 °F 24.1 °F 51% 30.31 in 10.0 mi SSW 11.5 mph - N/A   Clear
4:53 PM 37.9 °F 32.7 °F 25.0 °F 60% 30.31 in 10.0 mi SW 6.9 mph - N/A   Clear
5:53 PM 37.0 °F 32.4 °F 24.1 °F 59% 30.31 in 10.0 mi SSW 5.8 mph - N/A   Clear
6:53 PM 36.0 °F 30.3 °F 24.1 °F 62% 30.30 in 10.0 mi SSW 6.9 mph - N/A   Clear
7:53 PM 35.1 °F 29.3 °F 24.1 °F 64% 30.30 in 10.0 mi South 6.9 mph - N/A   Clear
8:53 PM 36.0 °F 28.5 °F 24.1 °F 62% 30.28 in 10.0 mi SSW 10.4 mph - N/A   Clear
9:53 PM 35.1 °F 28.6 °F 23.0 °F 61% 30.27 in 10.0 mi SSW 8.1 mph - N/A   Clear
10:53 PM 34.0 °F 26.6 °F 23.0 °F 64% 30.27 in 10.0 mi SSW 9.2 mph - N/A   Clear
11:53 PM 33.1 °F 25.5 °F 21.9 °F 64% 30.27 in 10.0 mi SSW 9.2 mph - N/A   Clear